Tracking 30995 objects as of 5-Jul-2025
HD Live streaming from Space Station
objects crossing your sky now

STARLINK-31818

Track STARLINK-31818 now!
10-day predictions
STARLINK-31818 is classified as:


NORAD ID: 59741
Int'l Code: 2024-090M
Perigee: 489.6 km
Apogee: 490.8 km
Inclination: 43.0 °
Period: 94.3 minutes
Semi major axis: 6861 km
RCS: Unknown
Launch date: May 13, 2024
Source: United States (US)
Launch site: AIR FORCE EASTERN TEST RANGE (AFETR)
Your satellite tracking list
Your tracking list is empty




NASA's NSSDC Master Catalog

Two Line Element Set (TLE):
1 59741U 24090M   25186.24140064  .00000216  00000-0  17356-4 0  9999
2 59741  43.0001 141.1645 0000867 253.6957 106.3800 15.27576376 65598
Source of the keplerian elements: AFSPC